Regional Weather Roundup
Issued by NWS

Home | Current Version | Previous Version | Graphics & Text | Print | Product List | Glossary On
Versions: 1 2 3 4 5 6 7 8 9 10 11 12 13 14 15 16 17 18 19 20 21 22 23 24 25 26 27 28 29 30 31 32 33 34 35 36 37 38 39 40 41 42 43 44 45 46 47 48 49 50
000
ASUS44 KMEG 021410
RWRTN
TENNESSEE HOURLY STATE WEATHER ROUNDUP
NATIONAL WEATHER SERVICE MEMPHIS TN
900 AM CDT MON MAY 02 2016

TNZ002-004-019-021-049-052-054-088>092-021500-
WEST TENNESSEE

CITY           SKY/WX    TMP DP  RH WIND       PRES   REMARKS
MEMPHIS INTL   RAIN      57  54  88 E13G18    30.02F FOG
NWS MEMPHIS      N/A     56 N/A N/A MISG        N/A
JACKSON        TSTM      57  54  89 NW8       30.06R FOG
DYERSBURG      CLOUDY    55  52  88 NE7         N/A
UNION CITY     PTSUNNY   57  54  88 SE6       30.02R
LEXINGTON      CLOUDY    59  54  82 N10       30.01S
$$

TNZ008-025-027-028-033-062-065-066-021500-
NORTH MIDDLE TENNESSEE

CITY           SKY/WX    TMP DP  RH WIND       PRES   REMARKS
NASHVILLE      CLOUDY    64  52  64 N8        30.02R
CLARKSVILLE    TSTM      58  53  84 NW6       30.04R
SMYRNA         CLOUDY    65  56  72 N6        30.02R
COOKEVILLE     CLOUDY    68  64  88 CALM      30.00F
CROSSVILLE     CLOUDY    67  61  81 CALM      30.04F
$$

TNZ061-075-076-078-094-096-097-021500-
SOUTH MIDDLE TENNESSEE

CITY           SKY/WX    TMP DP  RH WIND       PRES   REMARKS
FAYETTEVILLE   MOSUNNY   70  64  83 S7        29.98F
TULLAHOMA      MOSUNNY   70  66  88 S8        30.01S
WINCHESTER     MOSUNNY   70  63  78 S6        30.00F
MCMINNVILLE    CLOUDY    66  66 100 CALM      30.00F
COLUMBIA       CLOUDY   N/A N/A N/A NE7       29.98R
SHELBYVILLE    CLOUDY    66  66 100 CALM      30.00F
$$

TNZ017-018-042-046-047-021500-
NORTHEAST TENNESSEE

CITY           SKY/WX    TMP DP  RH WIND       PRES   REMARKS
TRI CITIES     PTSUNNY   71  61  70 S12       30.05F
$$

TNZ012-013-036-069-073-074-021500-
CENTRAL EAST TENNESSEE

CITY           SKY/WX    TMP DP  RH WIND       PRES   REMARKS
KNOXVILLE      PTSUNNY   70  63  78 CALM      30.02F
OAK RIDGE      CLOUDY    69  62  78 VRB3      30.04F
GATLINBURG     PTSUNNY   70  57  64 CALM      30.02F
MORRISTOWN     CLOUDY    68  61  77 W7        30.04S
$$

TNZ083-085-099-021500-
SOUTHEAST TENNESSEE

CITY           SKY/WX    TMP DP  RH WIND       PRES   REMARKS
CHATTANOOGA    CLOUDY    68  61  78 SW3       30.02F
$$

SKY/WX REPORTED AS FAIR MEANS FEW OR NO CLOUDS BELOW
12 THOUSAND FEET.





USA.gov is the U.S. government's official web portal to all federal, state and local government web resources and services.